カタログに戻る

STARLINK-38127

運用中通信SSO
NORAD 100155·PAYLOAD·🇺🇸 United States

打ち上げ Jul 25, 2026 から Vandenberg Space Force Base

Loading…

次のパス (今後24時間)

TLE

最新Source: Space-Track

元期: Sep 14, 2026, 12:43 UTC

1 A0155U 26171H   26257.53025925  .00006067  00000-0  17000-3 0  9991
2 A0155  97.2835 290.0940 0001472  82.4548 277.6864 15.36976874  7986

AllMySatでSTARLINK-38127をリアルタイム追跡

Download on the App Store